Voltar ao catálogo

STARLINK-3230

AtivoComunicaçõesVLEO
NORAD 50845·PAYLOAD·🇺🇸 United States

Lançado Jan 6, 2022 de Cape Canaveral Space Force Station

Loading…

Próximas Passagens (próximas 24 horas)

TLE

AtualizadoSource: CelesTrak SupGP

Época: Sep 14, 2026, 21:22 UTC

1 50845C 22001AU  26257.89076389  .00007702  00000+0  24768-3 0  2571
2 50845  53.1603  36.6120 0001161  69.6852 247.6210 15.31697172    10

Acompanhe STARLINK-3230 em tempo real com AllMySat

Download on the App Store